FW2483 Weather Reports


time (UTC)temp
F
wind
direction
speed
knots
gust
knots
rain 1hr
in
rain 24hr
in
rain mn
in
humidity
%
barometer
mb
20260506201850 65 211 3.5 6.1 0.00 0.14 0.14 83 1006.6
20260506201541 65 212 2.6 8.7 0.00 0.14 0.14 82 1006.9
20260506201334 66 221 0.9 8.7 0.00 0.14 0.14 84 1006.6
20260506200829 65 210 3.5 8.7 0.00 0.14 0.14 84 1006.5
20260506200326 65 175 2.6 7.0 0.00 0.14 0.14 85 1006.7
20260506200051 64 200 3.5 7.0 0.00 0.14 0.14 84 1007.0
20260506195822 65 200 3.5 6.1 0.00 0.14 0.14 85 1006.6
20260506195319 65 205 2.6 8.7 0.00 0.14 0.14 85 1006.7
20260506194816 64 202 4.3 9.6 0.00 0.14 0.14 85 1006.7
20260506194548 64 203 3.5 10.4 0.00 0.14 0.14 84 1007.1
20260506194311 64 186 3.5 9.6 0.00 0.14 0.14 85 1006.9
20260506193811 64 215 1.7 8.7 0.00 0.14 0.14 87 1006.8
20260506193524 64 211 2.6 7.0 0.00 0.14 0.14 88 1006.9
20260506193040 63 198 1.7 7.0 0.00 0.14 0.14 87 1007.0
20260506192756 63 204 2.6 7.0 0.00 0.14 0.14 88 1006.9
20260506192252 63 200 3.5 7.0 0.00 0.14 0.14 89 1007.1
20260506191538 62 226 0.9 6.1 0.00 0.14 0.14 89 1007.4
20260506191243 62 189 0.9 5.2 0.00 0.14 0.14 89 1007.2
20260506190739 62 218 2.6 5.2 0.00 0.14 0.14 90 1007.1
20260506190457 62 225 3.5 7.0 0.00 0.14 0.14 90 1007.4
20260506190048 62 207 1.7 7.0 0.00 0.14 0.14 89 1007.6
20260506185730 62 194 1.7 7.0 0.00 0.14 0.14 90 1007.5
20260506185231 62 210 1.7 6.1 0.00 0.14 0.14 90 1007.4
20260506184724 62 226 0.9 6.1 0.00 0.14 0.14 90 1007.3
20260506184543 61 202 1.7 7.0 0.00 0.14 0.14 90 1007.5
20260506184220 62 192 1.7 7.8 0.00 0.14 0.14 90 1007.4
20260506183715 62 208 3.5 7.8 0.00 0.14 0.14 90 1007.6
20260506183210 62 192 3.5 7.0 0.00 0.14 0.14 89 1007.7
20260506183054 61 200 2.6 7.8 0.00 0.14 0.14 88 1007.9
20260506182704 62 206 3.5 7.8 0.00 0.14 0.14 88 1007.7
20260506182157 62 214 1.7 8.7 0.00 0.14 0.14 88 1007.8
20260506181653 62 213 3.5 8.7 0.00 0.14 0.14 87 1007.8
20260506181542 61 210 2.6 8.7 0.00 0.14 0.14 87 1008.2
20260506181148 62 209 2.6 6.1 0.00 0.14 0.14 87 1007.9
20260506180643 62 196 2.6 7.0 0.00 0.14 0.14 87 1008.0
20260506180137 62 200 3.5 7.8 0.00 0.14 0.14 86 1007.9
20260506180039 61 233 2.6 7.8 0.00 0.14 0.14 86 1008.2
20260506175638 62 211 3.5 7.8 0.00 0.14 0.14 87 1007.9
20260506175417 62 203 1.7 6.1 0.00 0.14 0.14 87 1008.0
20260506174622 62 208 2.6 7.8 0.00 0.14 0.14 87 1008.0
20260506174537 61 211 2.6 7.8 0.00 0.14 0.14 87 1008.1
20260506174118 62 203 2.6 7.8 0.00 0.14 0.14 87 1007.9
20260506173606 62 183 2.6 6.1 0.00 0.14 0.14 88 1007.9
20260506173331 62 203 0.9 5.2 0.00 0.14 0.14 88 1007.8
20260506173052 61 0 0.9 6.1 0.00 0.14 0.14 87 1008.1
20260506172604 62 200 0.9 6.1 0.00 0.14 0.14 88 1007.9
20260506172055 62 188 1.7 7.0 0.00 0.14 0.14 88 1007.8
20260506171551 62 139 2.6 7.0 0.00 0.14 0.14 88 1007.9
20260506171546 61 129 2.6 7.0 0.00 0.14 0.14 88 1008.1
20260506171050 62 210 0.9 6.1 0.00 0.14 0.14 88 1008.1
20260506170541 62 210 3.5 7.0 0.00 0.14 0.14 88 1008.2
20260506170046 61 198 2.6 8.7 0.00 0.14 0.14 87 1008.3
20260506170036 62 198 3.5 8.7 0.00 0.14 0.14 88 1008.3
20260506165531 62 191 3.5 8.7 0.01 0.14 0.14 88 1008.2
20260506165028 62 183 3.5 8.7 0.01 0.14 0.14 88 1008.1
20260506164549 62 180 3.5 11.3 0.01 0.14 0.14 87 1008.3
20260506164525 62 180 2.6 11.3 0.01 0.14 0.14 88 1008.1
20260506164020 62 182 4.3 11.3 0.02 0.14 0.14 88 1007.9
20260506163516 62 174 5.2 9.6 0.02 0.14 0.14 89 1007.9
20260506163040 62 189 4.3 10.4 0.03 0.14 0.14 89 1008.2
20260506163011 62 174 4.3 8.7 0.03 0.14 0.14 89 1007.9
20260506162507 62 189 3.5 7.8 0.04 0.14 0.14 89 1007.8
20260506162002 62 155 2.6 7.0 0.05 0.14 0.14 89 1007.5
20260506161729 61 175 2.6 7.0 0.06 0.14 0.14 89 1007.6
20260506161546 61 132 1.7 8.7 0.05 0.14 0.14 89 1007.8
20260506161211 61 156 4.3 7.0 0.06 0.14 0.14 89 1007.8
20260506160446 61 180 3.5 9.6 0.07 0.14 0.14 89 1008.3
20260506160046 61 200 1.7 13.9 0.07 0.14 0.14 89 1008.9
20260506155937 61 122 1.7 9.6 0.07 0.14 0.14 89 1008.6
20260506155432 61 175 1.7 5.2 0.07 0.13 0.13 89 1008.8
20260506155150 61 199 1.7 5.2 0.07 0.13 0.13 89 1009.0
20260506154544 60 214 1.7 7.8 0.07 0.13 0.13 88 1009.3
20260506154424 61 201 1.7 7.8 0.07 0.13 0.13 89 1009.1
20260506153919 61 157 2.6 7.8 0.07 0.12 0.12 88 1009.0
20260506153408 61 181 0.9 6.1 0.06 0.11 0.12 88 1008.9
20260506153038 61 165 1.7 8.7 0.07 0.11 0.11 87 1009.3
20260506152903 61 211 2.6 7.8 0.07 0.11 0.11 88 1009.1
20260506152359 61 215 2.6 7.8 0.07 0.10 0.10 88 1009.3
20260506151855 62 196 1.7 7.0 0.07 0.09 0.09 87 1009.1
20260506151600 61 194 2.6 7.0 0.08 0.09 0.09 87 1009.5
20260506151350 62 129 3.5 7.0 0.07 0.08 0.08 87 1009.3
20260506151100 62 153 1.7 6.1 0.08 0.08 0.08 87 1009.3
20260506150339 62 206 1.7 7.0 0.07 0.07 0.07 87 1009.2
20260506150043 61 193 1.7 7.8 0.07 0.07 0.07 86 1009.5
20260506145840 62 199 2.6 7.0 0.07 0.07 0.07 87 1009.3
20260506145331 62 198 1.7 7.0 0.06 0.06 0.06 87 1009.3
20260506145053 62 177 0.9 5.2 0.06 0.06 0.06 87 1009.1
20260506144541 62 178 1.7 5.2 0.06 0.06 0.06 86 1009.3
20260506144321 62 206 1.7 5.2 0.06 0.06 0.06 87 1009.0
20260506143817 62 201 0.9 5.2 0.05 0.05 0.05 86 1009.0
20260506143047 62 215 0.9 7.0 0.04 0.04 0.04 85 1009.3
20260506142808 62 207 1.7 7.0 0.04 0.04 0.04 85 1009.1
20260506142305 62 209 0.9 4.3 0.03 0.03 0.03 84 1009.1
20260506141759 63 200 1.7 5.2 0.01 0.01 0.01 83 1009.0
20260506141540 62 163 0.9 7.8 0.01 0.01 0.01 83 1009.4
20260506141254 63 202 3.5 7.0 0.00 0.00 0.01 82 1009.1
20260506140753 63 209 1.7 7.8 0.00 0.00 0.00 82 1009.1
20260506140501 64 153 2.6 7.8 0.00 0.00 0.00 81 1009.1
20260506140039 63 197 0.9 10.4 0.00 0.00 0.00 80 1009.4
20260506135740 64 227 2.6 10.4 0.00 0.00 0.00 79 1009.0
20260506135240 64 217 1.7 10.4 0.00 0.00 0.00 79 1008.9
20260506134956 65 207 3.5 8.7 0.00 0.00 0.00 78 1008.8
20260506134544 65 180 3.5 9.6 0.00 0.00 0.00 77 1009.1
20260506134232 65 173 1.7 8.7 0.00 0.00 0.00 78 1008.8
20260506133952 65 194 4.3 8.7 0.00 0.00 0.00 77 1008.8
20260506133223 65 225 2.6 8.7 0.00 0.00 0.00 78 1009.0
20260506133045 64 197 2.6 9.6 0.00 0.00 0.00 77 1009.2
20260506132719 65 176 2.6 8.7 0.00 0.00 0.00 78 1009.0
20260506132432 65 171 3.5 8.7 0.00 0.00 0.00 78 1009.1
20260506131709 65 198 3.5 7.0 0.00 0.00 0.00 77 1009.1
20260506131541 64 215 2.6 8.7 0.00 0.00 0.00 76 1009.4
20260506131205 65 199 3.5 7.8 0.00 0.00 0.00 76 1008.9
20260506130922 65 195 1.7 8.7 0.00 0.00 0.00 76 1009.2
20260506130200 65 193 2.6 9.6 0.00 0.00 0.00 76 1009.4
20260506130044 65 170 1.7 12.2 0.00 0.00 0.00 75 1009.4
20260506125656 65 206 5.2 12.2 0.00 0.00 0.00 75 1009.3
20260506125414 65 205 4.3 12.2 0.00 0.00 0.00 75 1009.3
20260506124651 65 198 5.2 8.7 0.00 0.00 0.00 74 1009.3
20260506124538 65 186 3.5 8.7 0.00 0.00 0.00 74 1009.5
20260506124143 66 180 4.3 9.6 0.00 0.00 0.00 73 1009.3
20260506123637 66 219 3.5 9.6 0.00 0.00 0.00 73 1009.1
20260506123133 66 158 3.5 8.7 0.00 0.00 0.00 72 1009.2
20260506123044 66 178 2.6 9.6 0.00 0.00 0.00 71 1009.4
20260506122628 66 209 3.5 8.7 0.00 0.00 0.00 72 1009.2
20260506122123 66 174 1.7 9.6 0.00 0.00 0.00 72 1009.1
20260506121618 66 189 5.2 10.4 0.00 0.00 0.00 71 1008.9
20260506121543 66 231 4.3 11.3 0.00 0.00 0.00 71 1009.1
20260506121116 66 205 5.2 10.4 0.00 0.00 0.00 72 1008.9
20260506120612 66 178 3.5 11.3 0.00 0.00 0.00 72 1008.8
20260506120107 66 180 4.3 11.3 0.00 0.00 0.00 72 1008.9
20260506120043 66 194 4.3 7.8 0.00 0.00 0.00 71 1009.1
20260506115824 66 169 4.3 7.8 0.00 0.00 0.00 72 1008.9
20260506115056 66 193 2.6 9.6 0.00 0.00 0.00 72 1008.8
20260506114550 66 179 4.3 9.6 0.00 0.00 0.00 72 1009.0
20260506114545 66 178 4.3 11.3 0.00 0.00 0.00 71 1009.1
20260506114309 66 200 2.6 4.3 0.00 0.00 0.00 72 1008.7
20260506113807 66 201 1.7 5.2 0.00 0.00 0.00 72 1008.8
20260506113037 65 225 1.7 7.8 0.00 0.00 0.00 72 1009.1
20260506112532 66 144 1.7 6.1 0.00 0.00 0.00 72 1008.7
20260506112032 66 197 1.7 7.8 0.00 0.00 0.00 72 1008.5
20260506111543 65 204 0.9 7.8 0.00 0.00 0.00 71 1008.9
20260506111530 66 204 0.9 7.8 0.00 0.00 0.00 72 1008.7
20260506111246 66 209 0.9 10.4 0.00 0.00 0.00 72 1008.9
20260506110515 66 145 1.7 10.4 0.00 0.00 0.00 72 1009.0
20260506110050 65 219 2.6 7.8 0.00 0.00 0.00 71 1009.1
20260506110011 66 227 3.5 7.8 0.00 0.00 0.00 72 1008.8
20260506105506 66 217 2.6 9.6 0.00 0.00 0.00 71 1008.6
20260506105001 66 184 5.2 9.6 0.00 0.00 0.00 71 1008.4
20260506104540 65 196 4.3 10.4 0.00 0.00 0.00 71 1008.7
20260506104457 66 194 5.2 9.6 0.00 0.00 0.00 71 1008.4
20260506103952 66 138 5.2 9.6 0.00 0.00 0.00 71 1008.4
20260506103446 66 188 3.5 11.3 0.00 0.00 0.00 71 1008.4
20260506103037 65 196 3.5 11.3 0.00 0.00 0.00 71 1008.6
20260506102942 66 214 3.5 11.3 0.00 0.00 0.00 71 1008.3
20260506102442 66 157 1.7 7.0 0.00 0.00 0.00 71 1008.2
20260506102155 66 207 3.5 6.1 0.00 0.00 0.00 71 1008.3
20260506101551 65 186 1.7 4.3 0.00 0.00 0.00 71 1008.5
20260506101435 66 109 2.6 3.5 0.00 0.00 0.00 71 1008.1
20260506100931 66 198 0.9 4.3 0.00 0.00 0.00 71 1008.2
20260506100426 66 186 0.9 5.2 0.00 0.00 0.00 71 1008.2
20260506100038 66 182 0.9 7.8 0.00 0.00 0.00 70 1008.6
20260506095920 66 180 1.7 7.8 0.00 0.00 0.00 71 1008.3
20260506095416 66 217 1.7 6.1 0.00 0.00 0.00 71 1008.3
20260506095130 66 202 1.7 5.2 0.00 0.00 0.00 71 1008.3
20260506094552 66 207 0.9 7.8 0.00 0.00 0.00 70 1008.6
20260506094406 66 188 0.9 7.0 0.00 0.00 0.00 71 1008.3
20260506093854 66 185 2.6 7.0 0.00 0.00 0.00 71 1008.3
20260506093348 66 136 3.5 7.0 0.00 0.00 0.00 71 1008.2
20260506093047 66 196 0.9 5.2 0.00 0.00 0.00 70 1008.4
20260506092843 66 209 1.7 5.2 0.00 0.00 0.00 71 1008.3
20260506092339 66 165 1.7 4.3 0.00 0.00 0.00 70 1008.2
20260506091834 66 207 2.6 6.1 0.00 0.00 0.00 70 1008.3
20260506091537 66 189 1.7 8.7 0.00 0.00 0.00 70 1008.5
20260506091329 66 188 1.7 7.8 0.00 0.00 0.00 70 1008.2
20260506090824 67 159 2.6 7.8 0.00 0.00 0.00 70 1008.4
20260506090322 67 232 1.7 5.2 0.00 0.00 0.00 70 1008.3
20260506090038 66 143 1.7 5.2 0.00 0.00 0.00 69 1008.7
20260506085814 67 194 2.6 5.2 0.00 0.00 0.00 69 1008.4
20260506085310 67 210 1.7 4.3 0.00 0.00 0.00 69 1008.4
20260506084806 67 126 1.7 5.2 0.00 0.00 0.00 69 1008.4
20260506084542 67 191 0.9 6.1 0.00 0.00 0.00 68 1008.7
20260506084301 67 194 1.7 5.2 0.00 0.00 0.00 69 1008.4
20260506083801 67 161 2.6 8.7 0.00 0.00 0.00 68 1008.4
20260506083254 67 181 3.5 8.7 0.00 0.00 0.00 68 1008.4
20260506083040 67 200 3.5 7.8 0.00 0.00 0.00 68 1008.6
20260506082747 67 205 3.5 6.1 0.00 0.00 0.00 68 1008.4
20260506081742 67 201 1.7 7.8 0.00 0.00 0.00 68 1008.5
20260506081542 67 145 3.5 7.8 0.00 0.00 0.00 67 1008.7
20260506081237 67 194 3.5 7.0 0.00 0.00 0.00 68 1008.4
20260506080232 67 211 4.3 8.7 0.00 0.00 0.00 67 1008.5
20260506073159 67 198 0.9 7.0 0.00 0.00 0.00 66 1008.6
20260506073045 67 198 0.9 8.7 0.00 0.00 0.00 65 1008.8
20260506072923 67 157 2.6 7.8 0.00 0.00 0.00 65 1008.5
20260506072154 67 140 3.5 7.8 0.00 0.00 0.00 65 1008.6
20260506071910 67 208 3.5 7.0 0.00 0.00 0.00 65 1008.5
20260506071600 67 207 2.6 7.8 0.00 0.00 0.00 64 1008.9
20260506071156 67 161 0.9 7.8 0.00 0.00 0.00 65 1008.7
20260506070910 67 161 2.6 7.8 0.00 0.00 0.00 64 1008.7
20260506070150 68 139 1.7 7.8 0.00 0.00 0.00 64 1008.8
20260506062056 68 184 1.7 4.3 0.00 0.00 0.00 62 1009.2
20260506061552 68 156 0.0 3.5 0.00 0.00 0.00 62 1009.2
20260506061537 67 0 0.0 5.2 0.00 0.00 0.00 61 1009.5
20260506061040 68 156 0.9 3.5 0.00 0.00 0.00 62 1009.3
20260506060534 67 136 0.0 1.7 0.00 0.00 0.00 62 1009.2
20260506050923 68 207 0.9 6.1 0.00 0.00 0.00 59 1009.6
20260506050419 68 171 2.6 6.1 0.00 0.00 0.00 59 1009.7
20260506045118 69 175 1.7 6.1 0.00 0.00 0.00 58 1009.7
20260506044544 68 223 0.9 6.1 0.00 0.00 0.00 57 1010.0
20260506044351 69 175 0.9 5.2 0.00 0.00 0.00 58 1009.7
20260506043847 69 198 2.6 5.2 0.00 0.00 0.00 57 1009.8
20260506043341 69 203 0.9 4.3 0.00 0.00 0.00 58 1009.7
20260506043041 68 154 0.9 3.5 0.00 0.00 0.00 57 1010.0
20260506042837 68 184 0.9 3.5 0.00 0.00 0.00 58 1009.7
20260506042331 69 198 0.0 4.3 0.00 0.00 0.00 57 1009.8
20260506041825 69 199 0.9 4.3 0.00 0.00 0.00 57 1010.0
20260506041553 68 194 0.9 5.2 0.00 0.00 0.00 57 1010.2
20260506041324 69 211 0.9 3.5 0.00 0.00 0.00 57 1009.9
20260506040809 69 214 0.0 3.5 0.00 0.00 0.00 57 1009.8
20260506040304 69 215 0.0 2.6 0.00 0.00 0.00 56 1009.7
20260506040041 68 0 0.9 2.6 0.00 0.00 0.00 56 1009.9
20260506035805 69 215 0.9 4.3 0.00 0.00 0.00 55 1009.7
20260506035531 69 215 0.9 6.1 0.00 0.00 0.00 55 1009.8
20260506035019 69 211 0.9 6.1 0.00 0.00 0.00 55 1009.7
20260506034547 69 211 0.0 7.0 0.00 0.00 0.00 55 1010.0
20260506034510 69 205 1.7 5.2 0.00 0.00 0.00 55 1009.8
20260506033748 69 147 0.0 4.3 0.00 0.00 0.00 55 1009.7
20260506033242 69 171 0.0 5.2 0.00 0.00 0.00 55 1009.6
20260506033044 69 0 0.0 7.0 0.00 0.00 0.00 55 1009.8
20260506032737 69 188 0.0 7.0 0.00 0.00 0.00 55 1009.5
20260506032233 69 167 1.7 7.0 0.00 0.00 0.00 55 1009.5
20260506031953 69 140 1.7 7.0 0.00 0.00 0.00 54 1009.4
20260506031540 69 208 0.9 7.0 0.00 0.00 0.00 54 1009.8
20260506031224 70 198 1.7 7.0 0.00 0.00 0.00 54 1009.5
20260506030720 70 219 1.7 4.3 0.00 0.00 0.00 54 1009.5
20260506030216 70 141 0.9 4.3 0.00 0.00 0.00 54 1009.7
20260506030042 70 0 0.9 4.3 0.00 0.00 0.00 53 1009.8
20260506025712 70 212 0.9 4.3 0.00 0.00 0.00 53 1009.5
20260506025207 70 216 0.9 3.5 0.00 0.00 0.00 53 1009.6
20260506024701 70 184 0.9 2.6 0.00 0.00 0.00 53 1009.5
20260506024541 69 184 0.9 2.6 0.00 0.00 0.00 52 1009.8
20260506024157 70 183 0.0 1.7 0.00 0.00 0.00 53 1009.6
20260506023701 70 183 0.0 1.7 0.00 0.00 0.00 52 1009.6
20260506023418 71 183 0.0 3.5 0.00 0.00 0.00 51 1009.7
20260506023044 70 0 0.0 3.5 0.00 0.00 0.00 51 1009.9
20260506022647 71 183 1.7 5.2 0.00 0.00 0.00 51 1009.7
20260506022135 71 221 0.0 6.1 0.00 0.00 0.00 50 1009.7
20260506021854 72 192 1.7 6.1 0.00 0.00 0.00 50 1009.8
20260506021544 71 188 0.9 8.7 0.00 0.00 0.00 49 1009.9
20260506021126 72 196 1.7 6.1 0.00 0.00 0.00 49 1009.7
20260506020620 72 125 1.7 5.2 0.00 0.00 0.00 49 1009.6
20260506020115 72 208 1.7 7.0 0.00 0.00 0.00 48 1009.7
20260506020038 72 148 0.9 8.7 0.00 0.00 0.00 48 1009.8
20260506015611 72 196 2.6 7.0 0.00 0.00 0.00 48 1009.5
20260506015106 72 186 1.7 4.3 0.00 0.00 0.00 48 1009.4
20260506014601 72 138 1.7 3.5 0.00 0.00 0.00 48 1009.3
20260506014546 72 138 0.9 4.3 0.00 0.00 0.00 47 1009.5
20260506014056 73 142 1.7 4.3 0.00 0.00 0.00 47 1009.3
20260506013544 73 169 1.7 7.8 0.00 0.00 0.00 47 1009.2
20260506013041 74 171 1.7 7.8 0.00 0.00 0.00 46 1009.1
20260506013039 73 174 2.6 8.7 0.00 0.00 0.00 45 1009.4
20260506012535 74 201 3.5 7.8 0.00 0.00 0.00 46 1009.1
20260506012030 74 184 2.6 7.8 0.00 0.00 0.00 46 1009.1
20260506011544 73 174 1.7 7.8 0.00 0.00 0.00 45 1009.3
20260506011526 74 174 1.7 7.0 0.00 0.00 0.00 45 1009.0
20260506011015 74 180 2.6 6.1 0.00 0.00 0.00 45 1009.0
20260506010510 74 140 2.6 6.1 0.00 0.00 0.00 44 1008.9
20260506010041 74 175 0.9 4.3 0.00 0.00 0.00 43 1009.1
20260506010011 74 151 1.7 4.3 0.00 0.00 0.00 44 1008.9
20260506005505 74 124 1.7 4.3 0.00 0.00 0.00 43 1008.9
20260506004957 75 162 1.7 6.1 0.00 0.00 0.00 42 1008.8
20260506004717 75 200 1.7 8.7 0.00 0.00 0.00 42 1008.8
20260506004542 75 200 0.9 8.7 0.00 0.00 0.00 42 1009.1
20260506004211 75 193 2.6 8.7 0.00 0.00 0.00 42 1008.7
20260506003442 75 191 1.7 8.7 0.00 0.00 0.00 42 1008.7
20260506003038 75 190 3.5 8.7 0.00 0.00 0.00 41 1008.9
20260506002937 75 198 3.5 7.0 0.00 0.00 0.00 42 1008.7
20260506002438 76 171 2.6 5.2 0.00 0.00 0.00 42 1008.6
20260506001932 76 163 1.7 4.3 0.00 0.00 0.00 41 1008.6
20260506001605 75 196 0.9 8.7 0.00 0.00 0.00 40 1008.7
20260506001428 76 188 1.7 7.8 0.00 0.00 0.00 41 1008.5
20260506000927 76 201 0.9 7.8 0.00 0.00 0.00 40 1008.5
20260506000423 76 190 1.7 7.8 0.00 0.00 0.00 40 1008.4
20260506000047 76 130 2.6 7.0 0.00 0.00 0.00 40 1008.7
20260505235913 77 192 2.6 7.0 0.00 0.00 0.00 40 1008.4
20260505235408 77 198 3.5 10.4 0.00 0.00 0.00 39 1008.4
20260505234903 77 169 2.6 10.4 0.00 0.00 0.00 39 1008.3
20260505234547 76 219 2.6 8.7 0.00 0.00 0.00 39 1008.6
20260505234359 77 207 0.9 8.7 0.00 0.00 0.00 39 1008.3
20260505233854 77 205 4.3 9.6 0.00 0.00 0.00 39 1008.2
20260505233353 77 198 3.5 10.4 0.00 0.00 0.00 38 1008.1
20260505233040 77 192 5.2 11.3 0.00 0.00 0.00 38 1008.3
20260505232845 77 197 4.3 10.4 0.00 0.00 0.00 39 1008.2
20260505232340 78 142 4.3 10.4 0.00 0.00 0.00 39 1008.2
20260505231828 78 190 3.5 11.3 0.00 0.00 0.00 39 1008.2
20260505231553 78 207 5.2 11.3 0.00 0.00 0.00 39 1008.2
20260505231551 77 187 5.2 15.6 0.00 0.00 0.00 38 1008.4
20260505230819 78 115 2.6 7.0 0.00 0.00 0.00 39 1008.1
20260505230045 78 134 4.3 9.6 0.00 0.00 0.00 38 1008.3
20260505225809 78 196 3.5 8.7 0.00 0.00 0.00 39 1008.0
20260505225305 78 238 4.3 8.7 0.00 0.00 0.00 39 1008.1
20260505224759 78 122 2.6 7.8 0.00 0.00 0.00 39 1008.1
20260505224542 78 133 2.6 8.7 0.00 0.00 0.00 39 1008.3
20260505224254 79 168 1.7 7.8 0.00 0.00 0.00 39 1008.0
20260505223748 79 195 2.6 7.8 0.00 0.00 0.00 38 1008.0
20260505223248 79 179 3.5 12.2 0.00 0.00 0.00 37 1008.0
20260505223043 79 236 2.6 13.0 0.00 0.00 0.00 36 1008.2
20260505222740 80 197 6.1 12.2 0.00 0.00 0.00 36 1007.9
20260505222236 80 175 6.1 13.9 0.00 0.00 0.00 36 1008.0
20260505221737 80 213 5.2 13.9 0.00 0.00 0.00 36 1007.9
20260505221552 80 121 3.5 8.7 0.00 0.00 0.00 34 1008.2
20260505221228 81 186 3.5 9.6 0.00 0.00 0.00 35 1008.0
20260505220721 82 219 2.6 9.6 0.00 0.00 0.00 36 1007.9
20260505220218 81 206 3.5 13.0 0.00 0.00 0.00 36 1007.9
20260505220047 81 188 5.2 15.6 0.00 0.00 0.00 34 1008.2
20260505215715 82 164 3.5 13.0 0.00 0.00 0.00 35 1007.7
20260505215208 81 213 5.2 11.3 0.00 0.00 0.00 35 1007.7
20260505214704 81 184 5.2 11.3 0.00 0.00 0.00 35 1007.8
20260505214557 81 161 3.5 14.8 0.00 0.00 0.00 35 1007.9
20260505214203 82 187 3.5 14.8 0.00 0.00 0.00 36 1007.7
20260505213658 82 213 4.3 13.9 0.00 0.00 0.00 37 1007.9
20260505213153 81 188 7.8 16.5 0.00 0.00 0.00 35 1007.9
20260505213053 81 247 6.1 17.4 0.00 0.00 0.00 34 1008.1
20260505212648 82 238 7.0 16.5 0.00 0.00 0.00 35 1007.9
20260505212146 82 212 5.2 13.9 0.00 0.00 0.00 36 1007.7
20260505211643 81 179 5.2 10.4 0.00 0.00 0.00 36 1007.7
20260505211545 81 224 4.3 13.9 0.00 0.00 0.00 36 1007.9
20260505211404 81 192 5.2 12.2 0.00 0.00 0.00 37 1007.6
20260505210634 81 186 7.8 12.2 0.00 0.00 0.00 35 1007.7
20260505210129 81 201 5.2 11.3 0.00 0.00 0.00 36 1007.7
20260505210049 81 228 3.5 13.0 0.00 0.00 0.00 36 1007.8
20260505205630 81 159 5.2 11.3 0.00 0.00 0.00 37 1007.7
20260505205344 82 200 3.5 12.2 0.00 0.00 0.00 37 1007.7
20260505204624 81 137 4.3 12.2 0.00 0.00 0.00 36 1007.6
20260505204544 81 192 6.1 14.8 0.00 0.00 0.00 36 1008.0
20260505204343 82 200 4.3 12.2 0.00 0.00 0.00 36 1007.7
20260505203829 81 119 4.3 13.9 0.00 0.00 0.00 36 1007.9
20260505203326 81 179 5.2 13.9 0.00 0.00 0.00 36 1007.9
20260505203046 80 179 7.0 13.9 0.00 0.00 0.00 36 1008.1
20260505202821 82 238 3.5 12.2 0.00 0.00 0.00 36 1007.8